Location: Newark
(47.5833°N, 8.1500°E)
Time: 18:44:54
(UTC+00:00)

Transit 2A - Pass Details

Date: 03 November 2020
Orbit: 595 x 964 km, 66.7° (Epoch: 01 December)

Event Time Altitude Azimuth Distance (km) Brightness Sun altitude
Rises 05:10:01 0° 324° (NW) 3,542 - -11.3°
Exits shadow 05:10:45 - 327° (NNW) 3,317 8.9 -11.2°
Reaches altitude 10° 05:13:39 10° 344° (NNW) 2,533 8.4 -10.7°
Maximum altitude 05:17:16 16° 23° (NNE) 2,035 8.3 -10.1°
Drops below altitude 10° 05:20:41 10° 61° (ENE) 2,375 9.3 -9.6°
Sets 05:23:55 0° 83° (E) 3,221 10.8 -9.0°
